QPF
0.00 0.00 0.00 0.00 0.00 0.00 0.00 0.00 0.04 0.11 0.05 0.03 0.00 0.00 0.01 0.02 0.03 0.03 0.02 0.01 0.01 0.00 0.00 0.00 0.00 0.00 0.00 0.00 0.00 0.00 0.00 0.00 0.00 0.00 0.00 0.00 0.00 0.00 0.00 0.00 0.00 0.00 0.00
0.00 0.00 0.00 0.00 0.00 0.00 0.00 0.01 0.04 0.08 0.04 0.00 0.00 0.00 0.00 0.01 0.03 0.07 0.01 0.01 0.01 0.00 0.00 0.00 0.00 0.00 0.00 0.00 0.00 0.00 0.00 0.00 0.00 0.00 0.00 0.00 0.00 0.00 0.00 0.00 0.00 0.00 0.00
0.00 0.00 0.00 0.00 0.00 0.00 0.00 0.00 0.01 0.06 0.05 0.02 0.00 0.00 0.05 0.01 0.01 0.04 0.02 0.01 0.01 0.00 0.00 0.00 0.00 0.00 0.00 0.00 0.00 0.00 0.00 0.00 0.00 0.00 0.00 0.00 0.00 0.00 0.00 0.00 0.00 0.00 0.00
0.00 0.00 0.00 0.00 0.00 0.00 0.00 0.00 0.00 0.01 0.04 0.06 0.01 0.00 0.02 0.01 0.00 0.01 0.02 0.03 0.02 0.00 0.00 0.00 0.00 0.00 0.00 0.00 0.00 0.00 0.00 0.00 0.00 0.00 0.00 0.00 0.00 0.00 0.00 0.00 0.00 0.00 0.00
0.00 0.00 0.00 0.00 0.00 0.00 0.00 0.00 0.00 0.00 0.00 0.01 0.03 0.00 0.00 0.01 0.03 0.01 0.03 0.07 0.05 0.01 0.00 0.00 0.00 0.00 0.00 0.00 0.00 0.00 0.00 0.00 0.00 0.00 0.00 0.00 0.00 0.00 0.00 0.00 0.00 0.00 0.00
0.00 0.00 0.00 0.00 0.00 0.00 0.00 0.00 0.00 0.00 0.00 0.00 0.00 0.00 0.00 0.00 0.01 0.01 0.02 0.04 0.01 0.00 0.00 0.00 0.00 0.00 0.00 0.00 0.00 0.00 0.00 0.00 0.00 0.00 0.00 0.00 0.00 0.00 0.00 0.00 0.00 0.00 0.00
0.00 0.00 0.00 0.00 0.00 0.00 0.00 0.00 0.00 0.00 0.00 0.00 0.00 0.00 0.00 0.00 0.01 0.01 0.02 0.03 0.02 0.00 0.00 0.00 0.00 0.00 0.00 0.00 0.00 0.00 0.00 0.00 0.00 0.00 0.00 0.00 0.00 0.00 0.00 0.00 0.00 0.00 0.00
0.00 0.00 0.00 0.00 0.00 0.00 0.00 0.00 0.00 0.00 0.00 0.00 0.00 0.00 0.00 0.00 0.00 0.00 0.02 0.02 0.01 0.00 0.00 0.00 0.00 0.00 0.00 0.00 0.00 0.00 0.00 0.00 0.00 0.00 0.00 0.00 0.00 0.00 0.00 0.00 0.00 0.00 0.00
0.00 0.00 0.00 0.00 0.00 0.00 0.00 0.00 0.00 0.00 0.00 0.00 0.00 0.00 0.00 0.00 0.01 0.02 0.03 0.02 0.01 0.00 0.00 0.00 0.00 0.00 0.00 0.00 0.00 0.01 0.00 0.00 0.00 0.00 0.00 0.00 0.00 0.00 0.00 0.00 0.00 0.00 0.00
0.00 0.00 0.00 0.00 0.00 0.00 0.00 0.00 0.00 0.00 0.00 0.00 0.00 0.00 0.00 0.00 0.01 0.03 0.04 0.04 0.02 0.01 0.00 0.00 0.00 0.01 0.06 0.09 0.06 0.01 0.00 0.00 0.00 0.00 0.00 0.00 0.00 0.00 0.00 0.00 0.00 0.00 0.00
0.00 0.00 0.00 0.00 0.00 0.00 0.00 0.00 0.00 0.00 0.00 0.00 0.00 0.00 0.01 0.01 0.01 0.03 0.07 0.08 0.03 0.01 0.01 0.01 0.05 0.12 0.11 0.06 0.01 0.00 0.00 0.00 0.00 0.00 0.00 0.00 0.00 0.00 0.00 0.00 0.00 0.00 0.00
0.00 0.00 0.00 0.00 0.00 0.00 0.00 0.00 0.00 0.00 0.00 0.00 0.00 0.01 0.02 0.02 0.02 0.02 0.05 0.05 0.05 0.09 0.13 0.11 0.09 0.06 0.02 0.00 0.00 0.00 0.00 0.00 0.00 0.00 0.00 0.00 0.00 0.00 0.00 0.00 0.00 0.00 0.00
0.00 0.00 0.00 0.00 0.00 0.00 0.00 0.00 0.00 0.00 0.00 0.00 0.02 0.03 0.01 0.00 0.01 0.05 0.07 0.09 0.15 0.20 0.11 0.07 0.08 0.04 0.01 0.00 0.00 0.00 0.00 0.00 0.00 0.00 0.00 0.00 0.00 0.00 0.00 0.00 0.00 0.00 0.00
0.00 0.00 0.00 0.00 0.00 0.00 0.00 0.00 0.00 0.00 0.00 0.02 0.03 0.01 0.00 0.00 0.00 0.01 0.07 0.16 0.16 0.15 0.16 0.16 0.11 0.03 0.00 0.00 0.00 0.00 0.00 0.00 0.00 0.00 0.00 0.00 0.00 0.00 0.00 0.00 0.00 0.00 0.00
0.00 0.00 0.00 0.00 0.00 0.00 0.00 0.00 0.00 0.00 0.01 0.01 0.03 0.03 0.02 0.02 0.01 0.00 0.01 0.04 0.07 0.05 0.03 0.01 0.00 0.00 0.00 0.00 0.00 0.00 0.00 0.00 0.00 0.00 0.00 0.00 0.00 0.00 0.00 0.00 0.00 0.00 0.00
0.00 0.00 0.00 0.00 0.00 0.00 0.00 0.00 0.00 0.01 0.02 0.04 0.04 0.07 0.07 0.02 0.01 0.00 0.01 0.01 0.00 0.00 0.00 0.00 0.00 0.00 0.00 0.00 0.00 0.00 0.00 0.00 0.00 0.00 0.00 0.00 0.00 0.00 0.00 0.00 0.00 0.00 0.00
0.00 0.00 0.00 0.00 0.00 0.00 0.00 0.02 0.04 0.06 0.06 0.08 0.06 0.05 0.02 0.01 0.00 0.00 0.00 0.00 0.00 0.00 0.00 0.00 0.00 0.00 0.00 0.00 0.00 0.00 0.00 0.00 0.00 0.00 0.00 0.00 0.00 0.00 0.00 0.00 0.00 0.00 0.00
0.00 0.00 0.00 0.00 0.00 0.00 0.01 0.06 0.05 0.06 0.05 0.04 0.02 0.01 0.00 0.00 0.00 0.00 0.00 0.00 0.00 0.00 0.00 0.00 0.00 0.00 0.00 0.00 0.00 0.00 0.00 0.00 0.00 0.00 0.00 0.00 0.00 0.00 0.00 0.00 0.00 0.01 0.01
0.00 0.00 0.00 0.00 0.00 0.00 0.00 0.01 0.02 0.03 0.01 0.00 0.00 0.00 0.00 0.00 0.00 0.00 0.00 0.00 0.00 0.00 0.00 0.00 0.00 0.00 0.00 0.00 0.00 0.00 0.00 0.00 0.00 0.00 0.00 0.00 0.00 0.00 0.00 0.00 0.01 0.01 0.00
0.00 0.00 0.00 0.00 0.00 0.00 0.00 0.00 0.00 0.00 0.00 0.00 0.00 0.00 0.00 0.00 0.00 0.00 0.00 0.00 0.00 0.00 0.00 0.00 0.00 0.00 0.00 0.00 0.00 0.00 0.00 0.00 0.00 0.00 0.00 0.00 0.00 0.00 0.00 0.00 0.02 0.03 0.00
0.00 0.00 0.00 0.00 0.00 0.00 0.00 0.00 0.00 0.00 0.00 0.00 0.00 0.00 0.00 0.00 0.00 0.00 0.00 0.00 0.00 0.00 0.00 0.00 0.00 0.00 0.00 0.00 0.00 0.00 0.00 0.00 0.00 0.00 0.00 0.00 0.00 0.00 0.00 0.01 0.02 0.02 0.01
0.00 0.00 0.00 0.00 0.00 0.00 0.00 0.00 0.00 0.00 0.00 0.00 0.00 0.00 0.00 0.00 0.00 0.00 0.00 0.00 0.00 0.00 0.00 0.00 0.00 0.00 0.00 0.00 0.00 0.00 0.00 0.00 0.00 0.00 0.00 0.00 0.00 0.00 0.00 0.00 0.01 0.01 0.02
0.00 0.00 0.00 0.00 0.00 0.00 0.00 0.00 0.00 0.00 0.00 0.00 0.00 0.00 0.00 0.00 0.00 0.00 0.00 0.00 0.00 0.00 0.00 0.00 0.00 0.00 0.00 0.00 0.00 0.00 0.00 0.00 0.00 0.00 0.00 0.00 0.00 0.00 0.00 0.00 0.00 0.01 0.04
0.00 0.00 0.00 0.00 0.00 0.00 0.00 0.00 0.00 0.00 0.00 0.00 0.00 0.00 0.00 0.00 0.00 0.00 0.00 0.00 0.00 0.00 0.00 0.00 0.00 0.00 0.00 0.00 0.00 0.00 0.00 0.00 0.00 0.00 0.00 0.00 0.00 0.00 0.01 0.00 0.01 0.02 0.02
0.00 0.00 0.00 0.00 0.00 0.00 0.00 0.00 0.00 0.00 0.00 0.00 0.00 0.00 0.00 0.00 0.00 0.00 0.00 0.00 0.00 0.00 0.00 0.00 0.00 0.00 0.00 0.00 0.00 0.00 0.00 0.00 0.00 0.00 0.01 0.02 0.02 0.02 0.02 0.02 0.02 0.02 0.02
0.00 0.00 0.00 0.00 0.00 0.00 0.00 0.00 0.00 0.00 0.00 0.00 0.00 0.00 0.00 0.00 0.00 0.00 0.00 0.00 0.00 0.00 0.00 0.00 0.00 0.00 0.00 0.00 0.00 0.00 0.00 0.00 0.00 0.00 0.00 0.01 0.01 0.01 0.02 0.04 0.06 0.06 0.03
MSLP
1011.90 1012.65 1013.38 1013.55 1013.85 1014.58 1015.22 1015.68 1016.11 1016.90 1017.17 1017.47 1017.45 1017.58 1017.66 1018.67 1019.18 1019.50 1019.41 1019.62 1019.79 1020.15 1020.33 1020.44 1021.31 1021.20 1021.44 1022.01 1022.59 1022.70 1022.93 1023.01 1023.35 1023.13 1022.51 1022.52 1023.07 1023.66 1023.70 1023.71 1023.84 1023.98 1024.12
1010.73 1011.97 1012.71 1013.06 1013.17 1013.97 1014.38 1014.93 1015.23 1016.09 1016.40 1016.30 1016.69 1016.85 1017.16 1018.26 1018.49 1018.56 1019.24 1019.83 1020.43 1020.57 1020.18 1020.29 1020.87 1021.23 1021.42 1022.19 1022.44 1022.61 1022.63 1022.74 1023.25 1023.10 1022.97 1022.26 1022.20 1022.84 1023.24 1023.30 1023.50 1023.77 1024.12
1009.24 1010.38 1011.08 1011.81 1012.68 1013.41 1013.84 1014.17 1014.77 1015.51 1015.91 1015.65 1016.08 1016.40 1016.95 1017.66 1018.43 1018.75 1019.11 1019.61 1019.93 1019.95 1019.97 1020.19 1020.68 1021.16 1021.48 1022.02 1022.33 1022.61 1022.69 1022.56 1022.92 1023.55 1023.60 1022.73 1022.22 1022.60 1022.43 1022.72 1023.12 1023.55 1023.89
1008.25 1009.30 1010.17 1011.10 1011.75 1012.28 1012.99 1013.39 1013.79 1014.68 1015.22 1015.55 1015.41 1015.69 1016.49 1017.06 1017.63 1018.00 1018.84 1019.79 1020.18 1020.33 1020.25 1020.32 1020.57 1021.05 1021.20 1021.67 1022.17 1022.43 1022.81 1023.25 1023.02 1023.24 1023.48 1023.75 1023.89 1023.48 1022.81 1022.65 1022.61 1022.81 1023.17
1006.45 1007.81 1008.79 1009.62 1010.58 1011.39 1011.94 1012.69 1013.04 1013.15 1013.65 1014.65 1015.25 1015.20 1015.69 1016.08 1016.97 1017.83 1018.82 1019.48 1019.73 1020.02 1019.91 1020.17 1020.67 1020.91 1021.17 1021.56 1021.95 1022.69 1023.16 1023.26 1023.82 1023.75 1023.40 1023.44 1023.55 1023.60 1023.53 1022.79 1022.67 1022.52 1022.54
1004.77 1005.80 1007.17 1008.32 1009.09 1010.07 1010.96 1011.55 1011.94 1012.17 1012.82 1014.07 1014.75 1014.90 1015.37 1015.56 1016.58 1017.82 1018.79 1019.42 1019.76 1019.80 1019.50 1019.91 1020.42 1020.81 1021.20 1021.73 1022.49 1022.91 1023.21 1023.56 1023.70 1023.52 1023.59 1023.64 1023.53 1023.34 1023.21 1022.94 1022.77 1022.59 1022.60
1003.69 1004.43 1005.25 1006.48 1007.51 1008.41 1009.59 1010.46 1011.04 1011.41 1012.04 1013.19 1014.04 1014.51 1014.73 1015.13 1016.35 1017.31 1017.87 1018.56 1018.93 1018.89 1019.00 1019.49 1020.07 1020.57 1021.16 1021.87 1022.73 1023.15 1023.44 1023.74 1023.61 1023.59 1023.75 1023.63 1023.49 1023.60 1023.57 1023.45 1023.18 1022.88 1022.60
1002.34 1003.26 1003.95 1004.98 1006.08 1007.16 1008.41 1009.56 1010.18 1010.91 1011.44 1012.30 1013.29 1013.99 1014.35 1015.08 1015.89 1016.75 1017.29 1017.72 1018.15 1018.18 1018.37 1019.28 1019.83 1020.49 1021.24 1022.57 1022.96 1023.24 1023.58 1023.48 1023.56 1023.62 1023.89 1023.79 1023.41 1023.48 1023.55 1023.46 1023.36 1022.96 1022.65
1001.64 1002.00 1002.86 1003.82 1004.91 1006.09 1007.22 1008.38 1009.30 1010.01 1010.64 1011.34 1012.43 1013.34 1014.34 1014.85 1015.27 1015.82 1016.61 1017.20 1017.62 1017.60 1018.13 1018.86 1019.60 1020.55 1021.90 1023.14 1023.33 1023.41 1023.31 1023.09 1023.17 1023.42 1023.63 1023.68 1023.40 1023.48 1023.46 1023.45 1023.41 1023.23 1022.62
1001.57 1001.66 1002.01 1002.89 1003.89 1005.10 1006.46 1007.98 1008.74 1009.08 1009.65 1010.53 1011.78 1012.97 1013.80 1014.41 1014.97 1015.66 1016.49 1016.98 1017.10 1017.40 1017.95 1019.03 1020.03 1021.66 1022.87 1023.33 1023.35 1023.35 1022.68 1022.66 1022.91 1022.95 1023.03 1023.17 1023.14 1023.18 1023.10 1023.06 1023.01 1022.90 1022.56
1001.50 1001.81 1002.05 1002.55 1003.37 1004.31 1005.77 1007.10 1007.96 1008.31 1008.83 1009.77 1011.15 1012.46 1013.47 1014.21 1015.01 1015.77 1016.54 1016.98 1017.36 1017.53 1018.67 1019.70 1020.97 1022.15 1022.50 1022.48 1022.75 1022.43 1022.29 1022.31 1022.67 1022.70 1022.65 1022.66 1022.77 1022.78 1022.70 1022.60 1022.47 1022.29 1022.16
1001.31 1001.75 1002.22 1002.73 1003.22 1004.06 1004.94 1006.07 1007.27 1007.74 1008.19 1009.29 1010.60 1012.36 1013.48 1014.48 1015.34 1016.13 1016.84 1017.57 1018.43 1018.95 1019.74 1020.64 1021.55 1021.84 1021.93 1022.08 1022.26 1022.20 1022.01 1022.03 1022.14 1022.12 1022.15 1022.04 1022.05 1022.09 1022.18 1022.11 1021.86 1021.69 1021.64
1001.14 1001.67 1002.14 1002.66 1003.32 1004.14 1004.89 1005.64 1006.70 1007.41 1007.98 1009.06 1011.03 1012.79 1013.82 1014.53 1015.24 1015.83 1016.39 1017.26 1018.29 1019.99 1020.75 1021.26 1021.46 1021.77 1021.94 1021.71 1021.61 1021.51 1021.48 1021.87 1021.82 1021.81 1021.74 1021.67 1021.65 1021.54 1021.50 1021.42 1021.17 1021.04 1020.86
1000.97 1001.37 1002.04 1002.64 1003.41 1004.12 1004.95 1005.72 1006.60 1007.55 1008.78 1010.49 1012.00 1013.08 1014.01 1014.89 1015.90 1016.91 1017.28 1018.06 1018.77 1019.42 1020.51 1020.99 1021.33 1021.49 1021.32 1021.24 1021.29 1021.17 1021.30 1021.59 1021.59 1021.47 1021.44 1021.40 1021.36 1021.26 1021.18 1021.00 1020.78 1020.60 1020.38
1001.04 1001.42 1001.80 1002.42 1003.41 1004.40 1005.27 1005.96 1007.16 1008.52 1009.85 1011.43 1012.95 1013.92 1014.79 1015.58 1016.30 1017.23 1018.04 1018.27 1019.20 1019.67 1020.17 1020.47 1020.84 1020.74 1020.62 1020.85 1021.03 1021.26 1021.41 1021.48 1021.30 1021.19 1021.07 1020.90 1020.83 1020.92 1021.17 1021.08 1020.79 1020.84 1020.64
1001.61 1001.95 1002.26 1002.57 1003.65 1005.06 1006.19 1007.15 1008.61 1009.89 1011.06 1012.27 1013.41 1014.49 1015.22 1016.06 1016.96 1017.66 1018.26 1018.68 1019.26 1019.67 1019.91 1020.01 1019.69 1019.94 1020.33 1020.89 1021.46 1022.10 1021.97 1021.59 1021.31 1020.94 1020.70 1020.47 1020.28 1020.11 1020.07 1020.03 1020.14 1020.50 1020.57
1002.56 1002.78 1002.96 1003.38 1004.59 1005.89 1007.49 1008.87 1010.02 1011.09 1012.05 1013.11 1014.00 1014.98 1015.84 1016.61 1017.28 1017.91 1018.38 1018.76 1019.06 1019.46 1019.41 1019.34 1019.53 1019.85 1020.34 1020.89 1021.54 1021.99 1022.15 1021.67 1021.13 1020.81 1020.48 1020.09 1019.77 1019.66 1019.48 1019.23 1019.21 1019.33 1019.49
1003.47 1003.60 1003.91 1004.68 1005.73 1007.22 1008.81 1010.04 1010.90 1011.81 1012.34 1013.24 1014.28 1015.12 1015.90 1016.55 1017.14 1017.52 1017.79 1018.19 1018.56 1018.74 1018.82 1019.16 1019.54 1019.85 1020.17 1020.85 1021.43 1021.80 1021.99 1021.47 1020.93 1020.50 1020.06 1019.70 1019.36 1019.21 1019.10 1018.87 1018.60 1018.42 1018.30
1004.31 1004.71 1005.21 1005.91 1006.95 1008.44 1009.66 1010.79 1011.82 1012.55 1013.28 1013.84 1014.26 1014.96 1015.69 1016.48 1017.19 1017.47 1017.69 1018.03 1018.10 1018.53 1018.78 1019.08 1019.41 1019.85 1020.28 1020.96 1021.46 1021.77 1021.43 1021.07 1020.69 1020.36 1019.98 1019.68 1019.28 1019.10 1019.10 1018.99 1018.33 1017.90 1017.77
1005.49 1005.88 1006.28 1006.84 1007.77 1008.75 1009.64 1010.46 1011.36 1012.22 1012.81 1013.64 1014.52 1015.35 1016.04 1016.23 1016.66 1017.27 1017.39 1017.78 1018.14 1018.45 1018.83 1019.21 1019.64 1020.09 1020.62 1021.05 1021.52 1021.77 1021.69 1021.35 1020.95 1020.47 1020.01 1019.75 1019.54 1019.20 1019.03 1018.91 1018.46 1017.92 1017.54
1006.04 1006.61 1007.06 1007.58 1008.33 1009.27 1010.34 1011.12 1011.69 1012.17 1013.10 1013.99 1014.63 1015.18 1015.96 1016.54 1016.71 1016.98 1017.41 1017.78 1018.19 1018.81 1019.52 1020.23 1020.66 1020.81 1020.92 1021.29 1021.67 1021.90 1021.92 1021.60 1021.15 1020.67 1019.96 1019.47 1019.12 1018.84 1018.62 1018.41 1018.09 1017.71 1017.53
1006.47 1006.92 1007.54 1008.13 1008.79 1009.55 1010.26 1011.01 1011.86 1012.89 1013.68 1014.33 1014.98 1015.48 1016.00 1016.59 1016.95 1017.31 1017.87 1018.25 1018.57 1019.19 1019.92 1020.81 1020.99 1020.89 1021.20 1021.48 1021.86 1022.20 1022.34 1022.11 1021.52 1020.62 1019.86 1019.06 1018.59 1018.33 1017.94 1017.62 1017.22 1017.01 1016.98
1006.48 1007.13 1007.84 1008.70 1009.53 1010.15 1010.63 1011.31 1012.47 1013.43 1014.17 1014.82 1015.49 1015.99 1016.64 1017.10 1017.47 1017.80 1018.34 1018.81 1019.14 1019.73 1020.26 1020.83 1021.01 1021.10 1021.42 1021.40 1021.72 1021.98 1022.22 1021.98 1021.42 1020.64 1019.81 1019.07 1018.21 1017.53 1016.79 1016.23 1016.06 1016.08 1016.08
1006.91 1007.59 1008.49 1009.39 1010.24 1011.13 1011.78 1012.39 1012.91 1013.71 1014.55 1015.33 1016.06 1016.65 1017.15 1017.59 1018.03 1018.34 1018.95 1019.40 1019.92 1020.38 1020.84 1021.14 1021.41 1021.59 1021.66 1021.65 1022.29 1022.41 1022.02 1021.72 1021.10 1020.31 1019.51 1018.63 1017.77 1016.87 1016.08 1015.53 1015.12 1015.07 1015.07
1007.74 1008.45 1009.21 1010.16 1011.08 1011.92 1012.78 1013.43 1013.95 1014.44 1015.39 1016.26 1016.89 1017.49 1018.00 1018.27 1018.68 1019.13 1019.86 1020.06 1021.05 1021.64 1021.72 1021.87 1022.16 1022.27 1022.48 1022.82 1023.48 1023.10 1022.61 1022.12 1021.40 1020.52 1019.24 1017.90 1017.17 1016.50 1015.87 1015.14 1014.36 1014.20 1014.38
1008.58 1009.62 1010.70 1011.65 1012.62 1013.59 1014.40 1014.86 1015.17 1015.46 1016.19 1016.92 1017.61 1018.34 1018.91 1019.27 1019.39 1019.60 1020.43 1021.13 1021.37 1021.95 1022.75 1023.04 1023.18 1023.25 1023.52 1023.72 1023.47 1023.05 1022.62 1021.97 1021.04 1020.18 1018.87 1018.50 1018.06 1017.46 1016.72 1015.84 1015.09 1014.26 1013.77
Thickness
5621 5618 5614 5617 5619 5614 5611 5610 5609 5603 5601 5599 5600 5602 5605 5601 5600 5597 5601 5601 5600 5598 5598 5598 5591 5592 5591 5585 5580 5577 5573 5571 5565 5565 5568 5565 5558 5548 5543 5539 5534 5527 5520
5636 5628 5625 5624 5624 5620 5620 5617 5616 5611 5611 5614 5612 5613 5612 5605 5605 5604 5601 5596 5594 5593 5595 5594 5591 5587 5586 5579 5575 5572 5569 5566 5560 5557 5555 5555 5553 5545 5538 5534 5525 5517 5508
5648 5643 5641 5637 5632 5626 5625 5625 5622 5617 5615 5619 5617 5616 5613 5608 5603 5601 5599 5596 5594 5593 5593 5591 5587 5583 5580 5574 5569 5565 5561 5559 5556 5548 5541 5542 5541 5532 5530 5522 5516 5507 5499
5660 5653 5647 5641 5638 5637 5634 5632 5630 5622 5620 5620 5621 5619 5611 5606 5604 5605 5600 5593 5590 5588 5586 5585 5583 5578 5576 5570 5563 5558 5553 5546 5545 5540 5534 5526 5518 5514 5513 5510 5504 5496 5488
5674 5663 5658 5654 5649 5646 5642 5637 5635 5636 5634 5626 5621 5621 5617 5615 5609 5603 5596 5592 5590 5584 5583 5581 5576 5572 5568 5563 5557 5549 5541 5538 5528 5522 5521 5515 5508 5502 5497 5496 5492 5488 5481
5687 5681 5672 5666 5661 5657 5650 5647 5644 5643 5639 5629 5623 5620 5615 5615 5607 5598 5591 5586 5583 5581 5581 5578 5572 5567 5560 5554 5545 5538 5532 5525 5520 5517 5510 5503 5498 5494 5488 5482 5478 5472 5465
5692 5688 5683 5675 5670 5666 5658 5653 5649 5645 5642 5633 5626 5622 5620 5617 5605 5599 5593 5586 5582 5579 5577 5573 5567 5559 5552 5544 5534 5527 5520 5513 5510 5506 5499 5494 5490 5481 5473 5466 5462 5457 5452
5701 5695 5691 5685 5678 5672 5664 5655 5650 5644 5642 5636 5628 5623 5618 5613 5606 5599 5593 5587 5582 5580 5575 5565 5558 5549 5541 5529 5523 5516 5508 5504 5499 5494 5486 5480 5476 5468 5460 5452 5445 5442 5438
5703 5703 5698 5692 5685 5676 5669 5660 5653 5648 5644 5639 5631 5622 5614 5609 5606 5602 5594 5586 5580 5577 5568 5559 5550 5541 5527 5516 5511 5503 5498 5496 5490 5482 5475 5467 5461 5453 5446 5438 5430 5422 5420
5699 5703 5703 5697 5691 5682 5672 5661 5655 5651 5648 5641 5631 5621 5614 5608 5604 5597 5588 5580 5576 5570 5562 5550 5540 5525 5513 5505 5502 5496 5493 5488 5483 5476 5468 5458 5450 5442 5434 5426 5418 5409 5402
5694 5695 5697 5698 5693 5685 5674 5663 5656 5653 5649 5641 5630 5620 5612 5606 5598 5590 5581 5574 5567 5562 5548 5535 5523 5510 5504 5502 5494 5490 5486 5481 5473 5465 5457 5449 5439 5431 5423 5414 5406 5398 5388
5693 5692 5691 5689 5687 5681 5675 5666 5656 5652 5648 5639 5629 5613 5604 5595 5587 5578 5571 5561 5549 5541 5530 5520 5511 5505 5501 5494 5485 5483 5479 5470 5461 5454 5447 5439 5431 5423 5412 5403 5396 5387 5376
5689 5687 5685 5682 5678 5673 5668 5663 5656 5650 5645 5634 5619 5602 5593 5587 5579 5572 5566 5555 5543 5524 5515 5506 5500 5493 5488 5487 5483 5479 5473 5460 5453 5445 5436 5428 5420 5412 5402 5393 5385 5375 5366
5686 5684 5680 5677 5673 5668 5662 5656 5650 5643 5631 5614 5602 5591 5584 5576 5565 5554 5549 5539 5530 5521 5509 5501 5495 5488 5486 5482 5476 5469 5461 5451 5443 5434 5425 5417 5408 5399 5389 5381 5372 5361 5350
5679 5678 5676 5673 5666 5659 5653 5648 5639 5627 5615 5601 5586 5577 5569 5561 5553 5542 5533 5528 5516 5509 5502 5496 5488 5484 5481 5474 5466 5458 5448 5438 5431 5423 5415 5407 5398 5388 5376 5365 5358 5343 5330
5670 5668 5668 5667 5658 5647 5638 5629 5617 5607 5597 5586 5575 5565 5558 5549 5539 5530 5522 5515 5507 5500 5494 5489 5487 5480 5471 5459 5449 5438 5430 5424 5417 5411 5403 5394 5385 5377 5367 5359 5347 5333 5317
5658 5657 5657 5654 5645 5634 5620 5607 5598 5589 5581 5572 5562 5552 5544 5535 5527 5519 5512 5505 5499 5492 5487 5482 5475 5466 5456 5445 5434 5424 5416 5409 5404 5396 5389 5383 5374 5363 5353 5344 5331 5319 5304
5645 5645 5644 5637 5629 5615 5602 5590 5583 5574 5569 5561 5551 5543 5534 5527 5519 5513 5508 5500 5493 5486 5479 5470 5460 5451 5442 5431 5420 5410 5402 5397 5391 5384 5377 5370 5363 5351 5337 5329 5321 5309 5292
5635 5631 5628 5621 5611 5597 5588 5577 5567 5560 5553 5548 5545 5537 5528 5519 5507 5502 5496 5489 5483 5474 5465 5456 5447 5437 5426 5415 5404 5393 5391 5386 5379 5371 5362 5353 5346 5335 5322 5308 5301 5296 5284
5620 5615 5611 5606 5597 5589 5582 5575 5567 5558 5552 5543 5533 5523 5514 5509 5503 5492 5486 5478 5469 5460 5451 5441 5431 5420 5408 5397 5388 5379 5370 5366 5362 5354 5346 5336 5325 5317 5307 5293 5283 5273 5265
5609 5603 5598 5592 5586 5577 5567 5560 5555 5551 5541 5530 5522 5515 5504 5495 5490 5482 5474 5466 5456 5445 5432 5417 5407 5399 5391 5381 5372 5361 5351 5345 5340 5334 5331 5322 5312 5304 5294 5282 5270 5259 5248
5599 5595 5587 5581 5576 5569 5562 5554 5546 5535 5525 5517 5508 5501 5492 5483 5475 5467 5457 5448 5439 5427 5414 5396 5389 5383 5373 5364 5355 5342 5332 5323 5319 5316 5311 5307 5300 5289 5280 5269 5259 5247 5235
5593 5587 5579 5570 5562 5557 5551 5543 5530 5518 5509 5501 5492 5484 5474 5465 5457 5448 5438 5427 5419 5408 5397 5385 5376 5367 5356 5349 5340 5328 5316 5308 5301 5296 5291 5285 5281 5275 5269 5261 5250 5237 5228
5581 5575 5565 5556 5548 5539 5531 5524 5516 5506 5495 5485 5474 5464 5455 5446 5437 5429 5417 5408 5398 5388 5377 5368 5358 5349 5339 5332 5317 5306 5300 5292 5284 5280 5275 5268 5262 5257 5252 5246 5240 5232 5222
5564 5558 5550 5541 5530 5521 5510 5501 5494 5486 5474 5462 5452 5443 5433 5426 5416 5407 5395 5388 5373 5360 5355 5347 5335 5327 5317 5305 5289 5282 5276 5269 5262 5259 5257 5256 5249 5243 5238 5233 5230 5224 5216
5547 5537 5526 5516 5505 5494 5484 5477 5470 5463 5453 5443 5432 5420 5410 5401 5396 5390 5376 5361 5355 5343 5329 5319 5309 5300 5290 5280 5271 5263 5254 5248 5242 5239 5241 5231 5222 5217 5215 5214 5210 5208 5205